Flag for Niger Weather past 2 weeks in Niamey, Niger

Now
82 °F

Clear.


Feels Like: 88 °F
Forecast: 78 / 90 °F
Wind: 8 mph from Southwest

Location: Niamey-Aero

Current Time: Sep 16, 2014 at 9:24:01 PM

Latest Report: Sep 16, 2014 at 9:00 PM


Visibility: 10 mi

Pressure: 29.86 "Hg

Humidity: 74%

Dew point: 73 °F

Location of NiameyLocation

Historic Weather in Niamey — Graph

°F

Niamey temperature yesterday

Maximum temperature yesterday: 95 °F (at 3:00 PM)
Minimum temperature yesterday: 77 °F (at 2:00 AM)
Average temperature yesterday: 85 °F

Past Weeks' High & Low Weather Summary

 TemperatureHumidityPressure
High99 °F (Sep 4, 3:00 PM)100% (Sep 13, 11:00 PM)30.01 "Hg (Sep 13, 11:00 PM)
Low72 °F (Sep 16, 5:00 AM)27% (Sep 9, 4:00 PM)29.74 "Hg (Sep 4, 6:00 PM)
Average84 °F63%29.89 "Hg
* Reported Sep 1 8:00 PM — Sep 16 8:00 PM, Niamey, Weather by CustomWeather, © 2014

Note: Actual official high and low records may vary slightly from our data, if they occured in-between our weather recording intervals... More about our weather records

Advertising

Niamey weather history for previous 24 hours

 ConditionsComfort  
Time TempWeatherWind HumidityBarometerVisibility
8:00 PM
Sep 16
86 °FClear.7 mph62%29.83 "Hg10 mi
7:00 PM88 °FClear.7 mph55%29.83 "Hg10 mi
6:00 PM91 °FSunny.6 mph49%29.83 "Hg10 mi
5:00 PM93 °FPassing clouds.7 mph36%29.83 "HgN/A
4:00 PM93 °FSunny.3 mph41%29.83 "Hg10 mi
3:00 PM91 °FPassing clouds.8 mph44%29.86 "HgN/A
2:00 PM88 °FPassing clouds.8 mph52%29.86 "HgN/A
1:00 PM84 °FPassing clouds.7 mph58%29.89 "HgN/A
12:00 PM82 °FPassing clouds.12 mph62%29.92 "HgN/A
11:00 AM82 °FPassing clouds.15 mph62%29.95 "HgN/A
10:00 AM81 °FPassing clouds.12 mph66%29.95 "HgN/A
9:00 AM75 °FPassing clouds.8 mph78%29.92 "HgN/A
8:00 AM73 °FPassing clouds.12 mph89%29.92 "HgN/A
7:00 AM72 °FPassing clouds.5 mph88%29.95 "HgN/A
6:00 AM72 °FPassing clouds.12 mph94%29.95 "HgN/A
5:00 AM72 °FPassing clouds.10 mph88%29.95 "Hg5 mi
4:00 AM82 °FPassing clouds.6 mph79%29.89 "HgN/A
3:00 AM82 °FPassing clouds.3 mph79%29.89 "HgN/A
2:00 AM84 °FPassing clouds.5 mph74%29.89 "HgN/A
1:00 AM84 °FClear.3 mph74%29.89 "Hg10 mi
12:00 AM84 °FClear.5 mph74%29.89 "Hg10 mi
11:00 PM
Sep 15
86 °FClear.1 mph66%29.92 "Hg10 mi
10:00 PM86 °FClear.5 mph66%29.89 "Hg10 mi
9:00 PM88 °FClear.5 mph59%29.86 "Hg10 mi
Weather by CustomWeather, © 2014

See weather overviewHow to use our weather pages